When you browse on this site, cookies collect data to enhance your experience and personalize the content and advertising you see.
Visit our Privacy Policy to learn more. By continuing to use the site, you agree to this use of cookies and data.
  • In Latvia
  • List of Countries
  • For 7 days
  • Water Temperature
  • Weather Map
  • Weather Widgets
  • user-avatar
    Login

    Hourly Weather Al-Chums

    Today, 7 December, Saturday

    Time Temperature Precipitation Wind Pressure Humidity
    00:00 +9°C° 0 mm 3 mps 719 mmHg 85%
    01:00 +8°C° 0 mm 3 mps 719 mmHg 86%
    02:00 +8°C° 0 mm 2 mps 719 mmHg 88%
    03:00 +8°C° 0.1 mm 3 mps 719 mmHg 88%
    04:00 +8°C° 0.1 mm 3 mps 719 mmHg 89%
    05:00 +8°C° 0.1 mm 3 mps 719 mmHg 90%
    06:00 +8°C° 0 mm 2 mps 719 mmHg 88%
    07:00 +8°C° 0 mm 2 mps 719 mmHg 86%
    08:00 +9°C° 0 mm 1 mps 719 mmHg 84%
    09:00 +10°C° 0 mm 1 mps 719 mmHg 79%
    10:00 +11°C° 0 mm 1 mps 719 mmHg 73%
    11:00 +12°C° 0 mm 1 mps 719 mmHg 67%
    12:00 +12°C° 0 mm 2 mps 719 mmHg 63%
    13:00 +13°C° 0 mm 2 mps 719 mmHg 59%
    14:00 +14°C° 0 mm 2 mps 718 mmHg 54%
    15:00 +13°C° 0 mm 2 mps 718 mmHg 58%
    16:00 +13°C° 0 mm 2 mps 718 mmHg 61%
    17:00 +12°C° 0 mm 1 mps 718 mmHg 65%
    18:00 +12°C° 0 mm 2 mps 718 mmHg 68%
    19:00 +10°C° 0 mm 2 mps 718 mmHg 72%
    20:00 +10°C° 0 mm 2 mps 718 mmHg 75%
    21:00 +10°C° 0 mm 2 mps 718 mmHg 76%
    22:00 +9°C° 0 mm 2 mps 718 mmHg 77%
    23:00 +9°C° 0 mm 3 mps 718 mmHg 77%

    Tomorrow, 8 December, Sunday

    Time Temperature Precipitation Wind Pressure Humidity
    00:00 +9°C° 0 mm 2 mps 718 mmHg 78%
    01:00 +9°C° 0 mm 2 mps 718 mmHg 78%
    02:00 +9°C° 0 mm 2 mps 717 mmHg 79%
    03:00 +9°C° 0 mm 2 mps 717 mmHg 78%
    04:00 +8°C° 0 mm 2 mps 717 mmHg 77%
    05:00 +8°C° 0 mm 2 mps 717 mmHg 77%
    06:00 +9°C° 0 mm 2 mps 717 mmHg 72%
    07:00 +10°C° 0 mm 2 mps 717 mmHg 67%
    08:00 +10°C° 0 mm 3 mps 717 mmHg 62%
    09:00 +11°C° 0.1 mm 3 mps 717 mmHg 59%
    10:00 +13°C° 0.1 mm 2 mps 717 mmHg 57%
    11:00 +14°C° 0.1 mm 2 mps 717 mmHg 54%
    12:00 +12°C° 0.6 mm 3 mps 716 mmHg 62%
    13:00 +12°C° 0.6 mm 3 mps 716 mmHg 70%
    14:00 +11°C° 0.6 mm 3 mps 715 mmHg 78%
    15:00 +11°C° 0.4 mm 3 mps 715 mmHg 78%
    16:00 +12°C° 0.4 mm 2 mps 716 mmHg 78%
    17:00 +12°C° 0.4 mm 2 mps 716 mmHg 78%
    18:00 +12°C° 0.1 mm 2 mps 716 mmHg 76%
    19:00 +12°C° 0.1 mm 2 mps 716 mmHg 75%
    20:00 +12°C° 0.1 mm 2 mps 716 mmHg 73%
    21:00 +12°C° 0 mm 2 mps 716 mmHg 71%
    22:00 +12°C° 0 mm 2 mps 716 mmHg 70%
    23:00 +11°C° 0 mm 3 mps 716 mmHg 68%

    Day after tomorrow, 9 December, Monday

    Time Temperature Precipitation Wind Pressure Humidity
    00:00 +10°C° 0 mm 3 mps 716 mmHg 68%
    01:00 +10°C° 0 mm 2 mps 715 mmHg 69%
    02:00 +10°C° 0 mm 2 mps 715 mmHg 69%
    03:00 +10°C° 0.1 mm 2 mps 715 mmHg 71%
    04:00 +9°C° 0.1 mm 2 mps 715 mmHg 72%
    05:00 +9°C° 0.1 mm 2 mps 715 mmHg 73%
    06:00 +10°C° 0.1 mm 2 mps 715 mmHg 72%
    07:00 +10°C° 0.1 mm 3 mps 715 mmHg 71%
    08:00 +10°C° 0.1 mm 3 mps 716 mmHg 70%
    09:00 +11°C° 0.1 mm 3 mps 716 mmHg 67%
    10:00 +12°C° 0.1 mm 3 mps 716 mmHg 64%
    11:00 +13°C° 0.1 mm 3 mps 715 mmHg 61%
    12:00 +14°C° 0.2 mm 2 mps 715 mmHg 61%
    13:00 +14°C° 0.2 mm 2 mps 715 mmHg 62%
    14:00 +14°C° 0.2 mm 2 mps 715 mmHg 62%
    15:00 +14°C° 0.7 mm 2 mps 715 mmHg 67%
    16:00 +13°C° 0.7 mm 2 mps 715 mmHg 71%
    17:00 +12°C° 0.7 mm 1 mps 715 mmHg 75%
    18:00 +12°C° 0.1 mm 2 mps 715 mmHg 77%
    19:00 +10°C° 0.1 mm 2 mps 715 mmHg 79%
    20:00 +10°C° 0.1 mm 3 mps 716 mmHg 81%
    21:00 +9°C° 0 mm 3 mps 716 mmHg 84%
    22:00 +9°C° 0 mm 2 mps 716 mmHg 87%
    23:00 +9°C° 0 mm 2 mps 716 mmHg 90%

    10 December, Tuesday

    Time Temperature Precipitation Wind Pressure Humidity
    00:00 +8°C° 0 mm 2 mps 716 mmHg 91%
    01:00 +8°C° 0 mm 2 mps 716 mmHg 92%
    02:00 +8°C° 0 mm 2 mps 716 mmHg 93%
    03:00 +8°C° 0 mm 2 mps 716 mmHg 93%
    04:00 +9°C° 0 mm 1 mps 716 mmHg 93%
    05:00 +9°C° 0 mm 1 mps 716 mmHg 93%
    06:00 +9°C° 0 mm 1 mps 716 mmHg 91%
    07:00 +10°C° 0 mm 1 mps 717 mmHg 89%
    08:00 +10°C° 0 mm 1 mps 717 mmHg 87%
    09:00 +11°C° 0 mm 1 mps 717 mmHg 82%
    10:00 +12°C° 0 mm 1 mps 717 mmHg 77%
    11:00 +12°C° 0 mm 1 mps 717 mmHg 72%
    12:00 +13°C° 0 mm 1 mps 717 mmHg 68%
    13:00 +13°C° 0 mm 2 mps 717 mmHg 64%
    14:00 +14°C° 0 mm 2 mps 717 mmHg 60%
    15:00 +13°C° 0 mm 2 mps 717 mmHg 64%
    16:00 +13°C° 0 mm 2 mps 717 mmHg 67%
    17:00 +12°C° 0 mm 2 mps 717 mmHg 70%
    18:00 +12°C° 0 mm 2 mps 717 mmHg 74%
    19:00 +10°C° 0 mm 2 mps 717 mmHg 79%
    20:00 +10°C° 0 mm 2 mps 718 mmHg 84%
    21:00 +10°C° 0 mm 1 mps 718 mmHg 86%
    22:00 +10°C° 0 mm 1 mps 718 mmHg 88%
    23:00 +10°C° 0 mm 1 mps 718 mmHg 90%

    11 December, Wednesday

    Time Temperature Precipitation Wind Pressure Humidity
    00:00 +9°C° 0 mm 1 mps 718 mmHg 91%
    01:00 +9°C° 0 mm 1 mps 718 mmHg 92%
    02:00 +9°C° 0 mm 1 mps 718 mmHg 92%
    03:00 +9°C° 0 mm 1 mps 718 mmHg 92%
    04:00 +7°C° 0 mm 2 mps 718 mmHg 92%
    05:00 +7°C° 0 mm 2 mps 718 mmHg 92%
    06:00 +8°C° 0 mm 2 mps 718 mmHg 89%
    07:00 +8°C° 0 mm 2 mps 719 mmHg 87%
    08:00 +8°C° 0 mm 2 mps 719 mmHg 85%
    09:00 +10°C° 0 mm 3 mps 719 mmHg 78%
    10:00 +11°C° 0 mm 3 mps 719 mmHg 71%
    11:00 +12°C° 0 mm 3 mps 719 mmHg 64%
    12:00 +13°C° 0 mm 4 mps 718 mmHg 60%
    13:00 +14°C° 0 mm 4 mps 718 mmHg 57%
    14:00 +14°C° 0 mm 4 mps 718 mmHg 53%
    15:00 +14°C° 0 mm 4 mps 718 mmHg 57%
    16:00 +13°C° 0 mm 5 mps 717 mmHg 61%
    17:00 +12°C° 0 mm 5 mps 717 mmHg 65%
    18:00 +12°C° 0 mm 5 mps 717 mmHg 67%
    19:00 +10°C° 0 mm 5 mps 717 mmHg 69%
    20:00 +10°C° 0 mm 5 mps 717 mmHg 71%
    21:00 +9°C° 0 mm 6 mps 717 mmHg 72%
    22:00 +9°C° 0 mm 6 mps 717 mmHg 73%
    23:00 +9°C° 0 mm 6 mps 716 mmHg 74%

    12 December, Thursday

    Time Temperature Precipitation Wind Pressure Humidity
    00:00 +9°C° 0 mm 6 mps 716 mmHg 74%
    01:00 +8°C° 0 mm 7 mps 716 mmHg 74%
    02:00 +8°C° 0 mm 7 mps 715 mmHg 74%
    03:00 +8°C° 0 mm 7 mps 715 mmHg 74%
    04:00 +8°C° 0 mm 7 mps 714 mmHg 75%
    05:00 +8°C° 0 mm 7 mps 714 mmHg 75%
    06:00 +8°C° 0 mm 7 mps 714 mmHg 74%
    07:00 +8°C° 0 mm 6 mps 714 mmHg 74%
    08:00 +9°C° 0 mm 6 mps 714 mmHg 73%
    09:00 +10°C° 0.1 mm 6 mps 714 mmHg 71%
    10:00 +12°C° 0.1 mm 5 mps 714 mmHg 69%
    11:00 +12°C° 0.1 mm 5 mps 714 mmHg 66%
    12:00 +12°C° 0.4 mm 5 mps 713 mmHg 68%
    13:00 +12°C° 0.4 mm 5 mps 713 mmHg 69%
    14:00 +11°C° 0.4 mm 6 mps 712 mmHg 70%
    15:00 +10°C° 0.7 mm 6 mps 712 mmHg 74%
    16:00 +10°C° 0.7 mm 6 mps 712 mmHg 78%
    17:00 +9°C° 0.7 mm 5 mps 712 mmHg 82%
    18:00 +9°C° 0.4 mm 5 mps 713 mmHg 83%
    19:00 +10°C° 0.4 mm 4 mps 713 mmHg 84%
    20:00 +10°C° 0.4 mm 3 mps 713 mmHg 84%
    21:00 +10°C° 0 mm 3 mps 713 mmHg 86%
    22:00 +10°C° 0 mm 2 mps 713 mmHg 87%
    23:00 +10°C° 0 mm 2 mps 713 mmHg 88%
    Show more